Content
SEND FEEDBACK

Daily
Averages
Monthly
Summary
Canada

VANCOUVER - UNIVERSITY, BRITISH COLUMBIA


Home > North America > Canada > British Columbia
Elevation: 249 feet     Latitude: 49 15N     Longitude: 123 15W

WEATHER
 
SELECT A DAY
Number of Records: 195,024;   Date Range: 1/1/95 - 9/22/14
 
SHARE

PRINT THIS DATA

[ ← Previous Day ]
WEATHER ALMANAC - SEPTEMBER 18, 2013
[ Next Day → ]
[ °C ]   °F
Weather ElementAverageHighLow
Temperature59.5 °F66.2 °F (3:00 pm)53.6 °F (2:00 am)
Dewpoint52.1 °F55.4 °F (1:00 pm)48.2 °F (4:00 pm)
Humidity76.6 %94 % (2:00 am)52 % (4:00 pm)
Barometer30.02 in30.07 in (9:00 pm)29.92 in (1:00 am)
Wind Speed6.5 mph11.5 mph (3:00 pm)
Wind Gust17.3 mph (3:00 pm)
Weather ElementAverage
Visibility22.8 mi
Wind DirectionSSE (147 °)

Weather ElementTotal
Precipitation---
Heating Degree Days5.1 (Base 65)
Growing Degree Days9.9 (Base 50)
Averaged from 27 records on September 18, 2013
WEATHER CONDITIONS BREAKOUT
WIND DIRECTION BREAKOUT
WEATHER BY HOUR - SEPTEMBER 18, 2013
[ °C ]   °F
Local TimeTemperatureDewpointHumidityBarometerVisibilityWind DirectionWind SpeedGust SpeedPrecipitationEventsConditions
1:00 AM55.4 °F51.8 °F88 %29.92 in20.0 miEast (90°)6.9 mphMostly Cloudy
2:00 AM53.6 °F51.8 °F94 %29.93 in20.0 miEast (100°)5.8 mphPartly Cloudy
3:00 AM53.6 °F50.0 °F88 %29.94 in20.0 miEast (90°)5.8 mphPartly Cloudy
4:00 AM53.6 °F51.8 °F94 %29.95 in20.0 miEast (90°)5.8 mphMostly Cloudy
5:00 AM54.0 °F52.0 °F91 %29.96 in19.0 miEast (100°)4.6 mphOvercast
5:00 AM53.6 °F51.8 °F94 %29.96 in20.0 miEast (90°)4.6 mphOvercast
6:00 AM53.6 °F51.8 °F94 %29.96 in20.0 miEast (90°)6.9 mphScattered Clouds
7:00 AM53.6 °F51.8 °F94 %29.99 in20.0 miEast (100°)5.8 mphMostly Cloudy
8:00 AM57.2 °F53.6 °F88 %30.00 in20.0 miENE (70°)5.8 mphScattered Clouds
9:00 AM59.0 °F53.6 °F82 %30.02 in20.0 miEast (80°)2.3 mphScattered Clouds
10:00 AM60.8 °F51.8 °F72 %30.03 in20.0 miWest (280°)4.6 mphScattered Clouds
11:00 AM62.0 °F53.0 °F64 %30.04 in19.0 miWSW (250°)5.8 mphScattered Clouds
11:00 AM62.6 °F53.6 °F72 %30.04 in20.0 miSW (230°)5.8 mphMostly Cloudy
12:00 PM62.6 °F53.6 °F72 %30.05 in30.0 miWSW (240°)6.9 mphScattered Clouds
1:00 PM62.6 °F55.4 °F77 %30.06 in30.0 miSSW (200°)2.3 mphScattered Clouds
2:00 PM64.4 °F53.6 °F68 %30.06 in30.0 miSW (220°)8.1 mphScattered Clouds
3:00 PM66.2 °F53.6 °F64 %30.05 in30.0 miSW (220°)11.5 mph17.3 mphScattered Clouds
4:00 PM66.2 °F48.2 °F52 %30.05 in30.0 miSouth (180°)4.6 mphScattered Clouds
5:00 PM65.0 °F52.0 °F54 %30.06 in28.0 miSW (220°)11.5 mphScattered Clouds
5:00 PM66.2 °F51.8 °F60 %30.05 in30.0 miSW (220°)10.4 mphMostly Cloudy
6:00 PM62.6 °F51.8 °F68 %30.06 in30.0 miSSW (210°)5.8 mphOvercast
7:00 PM62.6 °F50.0 °F63 %30.05 in20.0 miSSE (150°)4.6 mphOvercast
8:00 PM60.8 °F51.8 °F72 %30.06 in20.0 miESE (120°)9.2 mphOvercast
9:00 PM59.0 °F53.6 °F82 %30.07 in20.0 miEast (80°)6.9 mphOvercast
10:00 PM57.2 °F51.8 °F82 %30.07 in20.0 miEast (90°)5.8 mphMostly Cloudy
11:00 PM59.0 °F51.0 °F66 %30.07 in19.0 miEast (80°)8.1 mphOvercast
11:00 PM59.0 °F50.0 °F72 %30.07 in20.0 miEast (80°)8.1 mphOvercast
Hourly data recorded from CYVR, located miles away from Vancouver - University, British Columbia







STORIES FROM OUR PARTNERS